| time (UTC) | temp F | wind direction | speed MPH | gust MPH | rain 1hr in | rain 24hr in | rain mn in | humidity % | barometer mb |
| 20260510182404 | 67 | 269 | 6.0 | 13.0 | 0.00 | 0.22 | 0.00 | 65 | 1023.9 |
| 20260510181404 | 68 | 281 | 3.0 | 13.0 | 0.00 | 0.23 | 0.00 | 65 | 1023.9 |
| 20260510180404 | 68 | 228 | 3.0 | 12.0 | 0.00 | 0.24 | 0.00 | 67 | 1023.9 |
| 20260510175404 | 68 | 237 | 2.0 | 10.0 | 0.00 | 0.25 | 0.00 | 68 | 1023.9 |
| 20260510174403 | 67 | 228 | 5.0 | 10.0 | 0.00 | 0.26 | 0.00 | 70 | 1023.9 |
| 20260510173404 | 65 | 206 | 3.0 | 12.0 | 0.00 | 0.27 | 0.00 | 70 | 1023.9 |
| 20260510172404 | 67 | 265 | 5.0 | 15.0 | 0.00 | 0.29 | 0.00 | 72 | 1023.9 |
| 20260510171404 | 66 | 183 | 4.0 | 13.0 | 0.00 | 0.30 | 0.00 | 72 | 1023.9 |
| 20260510170404 | 64 | 215 | 7.0 | 13.0 | 0.00 | 0.31 | 0.00 | 76 | 1023.9 |
| 20260510165404 | 63 | 203 | 4.0 | 12.0 | 0.00 | 0.32 | 0.00 | 73 | 1023.9 |
| 20260510164403 | 64 | 201 | 3.0 | 13.0 | 0.00 | 0.34 | 0.00 | 71 | 1023.9 |
| 20260510163404 | 66 | 196 | 3.0 | 9.0 | 0.00 | 0.35 | 0.00 | 73 | 1023.9 |
| 20260510162404 | 65 | 216 | 5.0 | 13.0 | 0.00 | 0.37 | 0.00 | 73 | 1023.9 |
| 20260510161403 | 64 | 148 | 0.0 | 12.0 | 0.00 | 0.39 | 0.00 | 78 | 1023.9 |
| 20260510160404 | 63 | 207 | 7.0 | 10.0 | 0.00 | 0.40 | 0.00 | 77 | 1023.9 |
| 20260510155403 | 63 | 233 | 3.0 | 14.0 | 0.00 | 0.41 | 0.00 | 78 | 1023.9 |
| 20260510154404 | 62 | 146 | 3.0 | 14.0 | 0.00 | 0.42 | 0.00 | 80 | 1023.9 |
| 20260510153405 | 61 | 160 | 0.0 | 6.0 | 0.00 | 0.43 | 0.00 | 84 | 1023.9 |
| 20260510152404 | 59 | 114 | 3.0 | 7.0 | 0.00 | 0.44 | 0.00 | 83 | 1023.9 |
| 20260510151404 | 60 | 180 | 3.0 | 7.0 | 0.00 | 0.45 | 0.00 | 83 | 1023.9 |
| 20260510150403 | 59 | 212 | 2.0 | 12.0 | 0.00 | 0.46 | 0.00 | 88 | 1023.9 |
| 20260510145404 | 58 | 189 | 5.0 | 12.0 | 0.00 | 0.46 | 0.00 | 89 | 1023.9 |
| 20260510144403 | 57 | 183 | 3.0 | 9.0 | 0.00 | 0.47 | 0.00 | 88 | 1023.9 |
| 20260510143404 | 56 | 168 | 2.0 | 8.0 | 0.00 | 0.48 | 0.00 | 91 | 1023.9 |
| 20260510142404 | 55 | 202 | 0.0 | 7.0 | 0.00 | 0.48 | 0.00 | 92 | 1023.9 |
| 20260510141404 | 55 | 185 | 4.0 | 12.0 | 0.00 | 0.48 | 0.00 | 92 | 1023.9 |
| 20260510140404 | 54 | 202 | 2.0 | 7.0 | 0.00 | 0.48 | 0.00 | 94 | 1023.9 |
| 20260510135405 | 54 | 198 | 3.0 | 8.0 | 0.00 | 0.48 | 0.00 | 95 | 1023.9 |
| 20260510134404 | 53 | 240 | 0.0 | 8.0 | 0.00 | 0.49 | 0.00 | 95 | 1023.9 |
| 20260510133404 | 53 | 131 | 1.0 | 7.0 | 0.00 | 0.49 | 0.00 | 96 | 1023.9 |
| 20260510132403 | 53 | 201 | 1.0 | 10.0 | 0.00 | 0.49 | 0.00 | 97 | 1023.9 |
| 20260510131404 | 52 | 199 | 3.0 | 10.0 | 0.00 | 0.50 | 0.00 | 97 | 1023.9 |
| 20260510130404 | 52 | 178 | 3.0 | 7.0 | 0.00 | 0.50 | 0.00 | 98 | 1023.9 |
| 20260510125403 | 52 | 209 | 3.0 | 7.0 | 0.00 | 0.50 | 0.00 | 98 | 1023.9 |
| 20260510124404 | 51 | 201 | 1.0 | 7.0 | 0.00 | 0.51 | 0.00 | 98 | 1023.9 |
| 20260510123403 | 51 | 205 | 3.0 | 5.0 | 0.00 | 0.51 | 0.00 | 98 | 1023.9 |
| 20260510122403 | 51 | 236 | 3.0 | 8.0 | 0.00 | 0.51 | 0.00 | 98 | 1023.9 |
| 20260510121403 | 50 | 209 | 2.0 | 7.0 | 0.00 | 0.52 | 0.00 | 98 | 1023.9 |
| 20260510120404 | 50 | 196 | 3.0 | 9.0 | 0.00 | 0.52 | 0.00 | 98 | 1023.9 |
| 20260510115404 | 50 | 214 | 4.0 | 12.0 | 0.00 | 0.53 | 0.00 | 98 | 1023.9 |
| 20260510114403 | 50 | 217 | 3.0 | 12.0 | 0.00 | 0.53 | 0.00 | 98 | 1023.9 |
| 20260510113404 | 50 | 226 | 1.0 | 3.0 | 0.00 | 0.54 | 0.00 | 98 | 1023.9 |
| 20260510112403 | 49 | 192 | 3.0 | 6.0 | 0.00 | 0.55 | 0.00 | 98 | 1023.9 |
| 20260510111404 | 49 | 195 | 1.0 | 9.0 | 0.00 | 0.55 | 0.00 | 98 | 1023.9 |
| 20260510110404 | 49 | 186 | 4.0 | 9.0 | 0.00 | 0.55 | 0.00 | 98 | 1023.9 |
| 20260510105405 | 49 | 185 | 4.0 | 7.0 | 0.00 | 0.55 | 0.00 | 98 | 1023.9 |
| 20260510104404 | 49 | 226 | 3.0 | 8.0 | 0.00 | 0.55 | 0.00 | 98 | 1023.9 |
| 20260510103404 | 49 | 185 | 3.0 | 7.0 | 0.00 | 0.55 | 0.00 | 98 | 1023.9 |
| 20260510102404 | 49 | 201 | 3.0 | 8.0 | 0.00 | 0.55 | 0.00 | 98 | 1023.9 |
| 20260510101404 | 49 | 178 | 2.0 | 3.0 | 0.00 | 0.55 | 0.00 | 98 | 1023.9 |
| 20260510095403 | 49 | 220 | 2.0 | 9.0 | 0.00 | 0.55 | 0.00 | 98 | 1023.9 |
| 20260510094403 | 49 | 206 | 2.0 | 9.0 | 0.00 | 0.55 | 0.00 | 98 | 1023.9 |
| 20260510093403 | 49 | 188 | 3.0 | 12.0 | 0.00 | 0.55 | 0.00 | 98 | 1023.9 |
| 20260510092404 | 49 | 198 | 2.0 | 10.0 | 0.00 | 0.55 | 0.00 | 98 | 1023.9 |
| 20260510091404 | 49 | 160 | 2.0 | 12.0 | 0.00 | 0.55 | 0.00 | 98 | 1023.9 |
| 20260510090404 | 49 | 192 | 3.0 | 8.0 | 0.00 | 0.55 | 0.00 | 98 | 1023.9 |
| 20260510085403 | 49 | 197 | 5.0 | 10.0 | 0.00 | 0.55 | 0.00 | 98 | 1023.9 |
| 20260510083404 | 49 | 222 | 2.0 | 7.0 | 0.00 | 0.55 | 0.00 | 98 | 1023.9 |
| 20260510082404 | 49 | 198 | 1.0 | 5.0 | 0.00 | 0.55 | 0.00 | 98 | 1023.9 |
| 20260510081404 | 49 | 193 | 3.0 | 9.0 | 0.00 | 0.55 | 0.00 | 98 | 1023.9 |
| 20260510080404 | 49 | 199 | 3.0 | 5.0 | 0.00 | 0.55 | 0.00 | 98 | 1023.9 |
| 20260510075404 | 49 | 203 | 0.0 | 0.0 | 0.00 | 0.55 | 0.00 | 98 | 1023.9 |
| 20260510074404 | 49 | 203 | 0.0 | 5.0 | 0.00 | 0.55 | 0.00 | 98 | 1023.9 |
| 20260510073404 | 49 | 202 | 2.0 | 7.0 | 0.00 | 0.55 | 0.00 | 98 | 1023.9 |
| 20260510072403 | 49 | 196 | 0.0 | 2.0 | 0.00 | 0.55 | 0.00 | 98 | 1023.9 |
| 20260510071404 | 49 | 196 | 0.0 | 0.0 | 0.00 | 0.55 | 0.00 | 98 | 1023.9 |
| 20260510070403 | 49 | 196 | 0.0 | 1.0 | 0.00 | 0.55 | 0.00 | 98 | 1023.9 |
| 20260510065403 | 49 | 196 | 0.0 | 3.0 | 0.00 | 0.55 | 0.00 | 98 | 1023.9 |
| 20260510063404 | 49 | 191 | 4.0 | 9.0 | 0.00 | 0.55 | 0.00 | 98 | 1023.9 |
| 20260510062404 | 49 | 217 | 2.0 | 6.0 | 0.00 | 0.55 | 0.00 | 98 | 1023.9 |
| 20260510061404 | 49 | 219 | 2.0 | 9.0 | 0.00 | 0.55 | 0.00 | 98 | 1023.9 |
| 20260510060403 | 49 | 194 | 0.0 | 3.0 | 0.00 | 0.55 | 0.00 | 98 | 1023.9 |
| 20260510055404 | 49 | 189 | 0.0 | 3.0 | 0.00 | 0.55 | 0.00 | 98 | 1023.9 |
| 20260510054403 | 49 | 194 | 0.0 | 5.0 | 0.00 | 0.55 | 0.00 | 98 | 1023.9 |
| 20260510053404 | 49 | 193 | 1.0 | 7.0 | 0.00 | 0.55 | 0.00 | 98 | 1023.9 |
| 20260510052404 | 49 | 152 | 3.0 | 7.0 | 0.00 | 0.55 | 0.00 | 98 | 1023.9 |
| 20260510051404 | 49 | 170 | 2.0 | 6.0 | 0.00 | 0.55 | 0.00 | 98 | 1023.9 |
| 20260510050404 | 49 | 167 | 2.0 | 8.0 | 0.00 | 0.55 | 0.00 | 98 | 1023.9 |
| 20260510045404 | 49 | 165 | 2.0 | 9.0 | 0.00 | 0.55 | 0.00 | 98 | 1023.9 |
| 20260510044404 | 49 | 161 | 1.0 | 8.0 | 0.00 | 0.55 | 0.00 | 98 | 1023.9 |
| 20260510043404 | 49 | 189 | 2.0 | 8.0 | 0.00 | 0.55 | 0.00 | 98 | 1023.9 |
| 20260510042404 | 48 | 161 | 2.0 | 7.0 | 0.00 | 0.55 | 0.00 | 98 | 1023.9 |
| 20260510041403 | 48 | 134 | 1.0 | 7.0 | 0.00 | 0.55 | 0.00 | 98 | 1023.9 |
| 20260510040404 | 48 | 165 | 0.0 | 6.0 | 0.00 | 0.55 | 0.00 | 98 | 1023.9 |
| 20260510035403 | 48 | 135 | 0.0 | 3.0 | 0.00 | 0.55 | 0.55 | 98 | 1023.9 |
| 20260510034404 | 48 | 131 | 0.0 | 2.0 | 0.00 | 0.55 | 0.55 | 98 | 1023.9 |
| 20260510033404 | 48 | 130 | 0.0 | 3.0 | 0.00 | 0.55 | 0.55 | 98 | 1023.9 |
| 20260510032403 | 48 | 124 | 0.0 | 7.0 | 0.00 | 0.55 | 0.55 | 98 | 1023.9 |
| 20260510030404 | 48 | 140 | 1.0 | 7.0 | 0.00 | 0.55 | 0.55 | 98 | 1023.9 |
| 20260510025404 | 48 | 135 | 2.0 | 7.0 | 0.00 | 0.55 | 0.55 | 97 | 1023.9 |
| 20260510024405 | 48 | 140 | 0.0 | 5.0 | 0.00 | 0.55 | 0.55 | 98 | 1023.9 |
| 20260510023403 | 48 | 148 | 0.0 | 5.0 | 0.00 | 0.55 | 0.55 | 97 | 1023.9 |
| 20260510022404 | 48 | 138 | 1.0 | 7.0 | 0.00 | 0.55 | 0.55 | 97 | 1023.9 |
| 20260510021403 | 48 | 149 | 1.0 | 6.0 | 0.00 | 0.55 | 0.55 | 98 | 1023.9 |
| 20260510020404 | 47 | 172 | 0.0 | 3.0 | 0.00 | 0.55 | 0.55 | 98 | 1023.9 |
| 20260510015404 | 47 | 151 | 0.0 | 3.0 | 0.00 | 0.55 | 0.55 | 98 | 1023.9 |
| 20260510014403 | 47 | 164 | 2.0 | 8.0 | 0.00 | 0.55 | 0.55 | 98 | 1023.9 |
| 20260510013404 | 47 | 138 | 0.0 | 5.0 | 0.00 | 0.55 | 0.55 | 97 | 1023.9 |
| 20260510012404 | 47 | 140 | 0.0 | 6.0 | 0.00 | 0.55 | 0.55 | 97 | 1023.9 |
| 20260510011404 | 47 | 163 | 1.0 | 6.0 | 0.00 | 0.55 | 0.55 | 97 | 1023.9 |
| 20260510010403 | 47 | 150 | 0.0 | 7.0 | 0.00 | 0.55 | 0.55 | 97 | 1023.9 |
| 20260510005404 | 47 | 127 | 0.0 | 7.0 | 0.00 | 0.55 | 0.55 | 97 | 1023.9 |
| 20260510004404 | 47 | 166 | 1.0 | 6.0 | 0.00 | 0.55 | 0.55 | 97 | 1023.9 |
| 20260510003403 | 47 | 142 | 1.0 | 8.0 | 0.00 | 0.55 | 0.55 | 97 | 1023.9 |
| 20260510002404 | 48 | 157 | 2.0 | 8.0 | 0.00 | 0.55 | 0.55 | 97 | 1023.9 |
| 20260510001404 | 47 | 162 | 3.0 | 8.0 | 0.00 | 0.55 | 0.55 | 97 | 1023.9 |
| 20260509235404 | 47 | 166 | 5.0 | 10.0 | 0.00 | 0.55 | 0.55 | 97 | 1023.9 |
| 20260509234404 | 47 | 187 | 3.0 | 7.0 | 0.00 | 0.55 | 0.55 | 97 | 1023.9 |
| 20260509233403 | 47 | 151 | 1.0 | 10.0 | 0.01 | 0.55 | 0.55 | 97 | 1023.9 |
| 20260509232403 | 47 | 152 | 2.0 | 8.0 | 0.01 | 0.55 | 0.55 | 97 | 1023.9 |
| 20260509231403 | 47 | 125 | 3.0 | 7.0 | 0.01 | 0.55 | 0.55 | 97 | 1023.9 |
| 20260509225404 | 47 | 131 | 1.0 | 9.0 | 0.01 | 0.55 | 0.55 | 97 | 1023.9 |
| 20260509224405 | 47 | 135 | 1.0 | 8.0 | 0.01 | 0.55 | 0.55 | 97 | 1023.9 |
| 20260509223404 | 47 | 134 | 2.0 | 10.0 | 0.01 | 0.54 | 0.54 | 97 | 1023.9 |
| 20260509222404 | 47 | 156 | 3.0 | 8.0 | 0.03 | 0.54 | 0.54 | 97 | 1023.9 |
| 20260509221404 | 47 | 125 | 0.0 | 9.0 | 0.04 | 0.54 | 0.54 | 97 | 1023.9 |
| 20260509220404 | 47 | 113 | 2.0 | 9.0 | 0.05 | 0.54 | 0.54 | 97 | 1023.9 |
| 20260509215404 | 48 | 115 | 0.0 | 9.0 | 0.06 | 0.54 | 0.54 | 97 | 1023.9 |
| 20260509212404 | 48 | 137 | 1.0 | 6.0 | 0.06 | 0.51 | 0.51 | 97 | 1023.9 |
| 20260509211403 | 48 | 137 | 1.0 | 8.0 | 0.05 | 0.50 | 0.50 | 97 | 1023.9 |
| 20260509210404 | 48 | 130 | 1.0 | 9.0 | 0.05 | 0.49 | 0.49 | 97 | 1023.9 |
| 20260509205405 | 47 | 153 | 3.0 | 9.0 | 0.05 | 0.48 | 0.48 | 97 | 1023.9 |
| 20260509203404 | 47 | 152 | 2.0 | 6.0 | 0.06 | 0.46 | 0.46 | 97 | 1023.9 |
| 20260509202404 | 47 | 126 | 2.0 | 7.0 | 0.06 | 0.45 | 0.45 | 97 | 1023.9 |
| 20260509201404 | 47 | 130 | 1.0 | 8.0 | 0.07 | 0.45 | 0.45 | 97 | 1023.9 |
| 20260509200404 | 47 | 132 | 3.0 | 7.0 | 0.07 | 0.44 | 0.44 | 97 | 1023.9 |
| 20260509195404 | 46 | 125 | 1.0 | 3.0 | 0.07 | 0.43 | 0.43 | 97 | 1023.9 |
| 20260509194404 | 46 | 142 | 0.0 | 0.0 | 0.07 | 0.42 | 0.42 | 96 | 1023.9 |
| 20260509193404 | 46 | 142 | 0.0 | 0.0 | 0.06 | 0.40 | 0.40 | 96 | 1023.9 |
| 20260509191403 | 46 | 150 | 0.0 | 6.0 | 0.06 | 0.38 | 0.38 | 96 | 1023.9 |
| 20260509190403 | 46 | 153 | 1.0 | 7.0 | 0.06 | 0.37 | 0.37 | 96 | 1023.9 |
| 20260509185403 | 46 | 124 | 0.0 | 7.0 | 0.06 | 0.36 | 0.36 | 96 | 1023.9 |
| 20260509184404 | 46 | 174 | 1.0 | 5.0 | 0.06 | 0.36 | 0.35 | 96 | 1023.9 |
| 20260509183404 | 45 | 118 | 0.0 | 3.0 | 0.06 | 0.36 | 0.34 | 96 | 1023.9 |